This is the latest recevied weather packets stored in our database for station/object N4CRH-13. If no packets are shown the sender has not sent any weather packets the latest 10 day(s).
| Time | Temp. | Humidity | Pressure | Rain* | Wind** | Luminosity | Snow |
|---|---|---|---|---|---|---|---|
| 1778132382 | -2.22° C | 92% | 1296.2 hPa | 0 mm | - | 0 W/m² | - |
| 1778132080 | -2.78° C | 93% | 1296 hPa | 0 mm | - | 0 W/m² | - |
| 1778131778 | -2.78° C | 93% | 1296.3 hPa | 0 mm | - | 0 W/m² | - |
| 1778131475 | -2.78° C | 93% | 1296.3 hPa | 0 mm | - | 0 W/m² | - |
| 1778131172 | -2.78° C | 93% | 1296.4 hPa | 0 mm | - | 0 W/m² | - |
| 1778130870 | -2.78° C | 93% | 1296.2 hPa | 0 mm | - | 0 W/m² | - |
| 1778130567 | -2.78° C | 94% | 1296.2 hPa | 0 mm | - | 0 W/m² | - |
| 1778130263 | -2.78° C | 94% | 1296.3 hPa | 0 mm | - | 0 W/m² | - |
| 1778129960 | -2.78° C | 92% | 1296.3 hPa | 0 mm | - | 0 W/m² | - |
| 1778129657 | -2.22° C | 91% | 1296.2 hPa | 0 mm | - | 0 W/m² | - |
| 1778129348 | -1.67° C | 90% | 1296.2 hPa | 0 mm | - | 0 W/m² | - |
| 1778129045 | -1.67° C | 90% | 1296 hPa | 0 mm | - | 0 W/m² | - |
| 1778128741 | -1.67° C | 91% | 1296 hPa | 0 mm | - | 0 W/m² | - |
| 1778128437 | -1.67° C | 90% | 1296.2 hPa | 0 mm | - | 0 W/m² | - |
| 1778128134 | -1.11° C | 90% | 1296 hPa | 0 mm | - | 0 W/m² | - |
| 1778127830 | -1.67° C | 91% | 1296 hPa | 0 mm | - | 0 W/m² | - |
| 1778127526 | -1.67° C | 92% | 1296 hPa | 0 mm | - | 0 W/m² | - |
| 1778127223 | -1.67° C | 92% | 1296 hPa | 0 mm | - | 0 W/m² | - |
| 1778126921 | -1.67° C | 93% | 1296 hPa | 0 mm | - | 0 W/m² | - |
| 1778126616 | -2.22° C | 93% | 1295.7 hPa | 0 mm | - | 0 W/m² | - |
| 1778126312 | -1.67° C | 93% | 1296 hPa | 0 mm | - | 0 W/m² | - |
| 1778126008 | -1.67° C | 92% | 1295.8 hPa | 0 mm | - | 0 W/m² | - |
| 1778125706 | -1.67° C | 92% | 1295.7 hPa | 0 mm | - | 0 W/m² | - |
| 1778125402 | -1.67° C | 93% | 1295.8 hPa | 0 mm | - | 0 W/m² | - |
| 1778125101 | -1.11° C | 92% | 1295.9 hPa | 0 mm | - | 0 W/m² | - |
* Rain latest hour (hover to see other rain measurements)
** Current wind speed in m/s (hover to see current wind gust speed)